DELTA 1 DEB, 40764

Orbit data source: Space-Track

DELTA 1 DEB, 40764 is space debris in SSO originally from a launch on Thu, 29 Jul 1976 UTC launched from the Air Force Western Test Range (AFWTR). Debris objects in space refer to the collection of defunct objects orbiting the Earth. Examples of debris include non-operational satellites, rocket bodies, and fragments generated from explosions, collisions, or faulty payload assembly.

Loading next visibility...
Identifier
40764, 1976-077GH
Orbit
SSO
Country
Flag of USUS
Related business
Manufacturer
Unknown
Mission
Spacecraft
Bus & Motor
Unknown
Mass
Unknown
Launch date (UTC)
1976-07-29 (50 years ago)
Launch vehicle
Unknown
Launch site
Air Force Western Test Range (AFWTR)
Object type
Payload
Rocket body
Debris
Shape & HBR
Unknown shape, 0.1 m
Radar Cross Section
Medium (>0.1 m² and <1 m²)

Expand to show TLE details & history
Last TLE update: 2 days ago

TLE from 2 days ago
0 DELTA 1 DEB
1 40764U 76077GH  26263.69889000  .00000007  00000-0  39152-3 0  9997
2 40764 102.2144 246.4942 0000487 264.5078  95.5930 12.40728218913671
Epoch: 2026-09-20T16:46Z
TLE epoch observation values (Epoch: 2026-09-20T16:46:24.096Z)
Latitude
0.00005°
Longitude
-4.69554°
Altitude
1,506.097 km
Speed
7.112 km/s
True Right ascension
16h 25m 58s
True Declination
0° 00' 00"
Sunlit
Object was in daylight at epoch
Visualization orbit readout
Latitude
Unknown
Longitude
Unknown
Altitude
Unknown
Speed
Unknown
Apparent Right ascension
Unknown
Apparent Declination
Unknown
Sunlit
N/A
Visualization observer readout
Local Sidereal Time
19:29:33
Azimuth
Unknown
Elevation
Unknown
Doppler factor
Unknown
Orbital elements
Apogee altitude
1,501.488 km
Perigee altitude
1,500.721 km
Semi-major axis
7,879.241 km
Eccentricity
0.00005
Inclination
102.2144°
RAAN
246.4942°
Arg. of periapsis
264.5078°
True anomaly
95.59855°
Mean anomaly
95.593°
Eccentric anomaly
95.59578°
Mean motion
3.10325 °/min
Orbital period
116.01 mins
BSTAR
0.00039152
Loading maneuver chart data...
Computing Atmospheric mass density...
Loading historical data...
Loading historical data...
Loading historical data...
Loading historical data...
Loading historical data...
Loading historical data...
Loading historical data...

Documentation

Showing up to 5 results
|